Location: Unspecified
(51.0950°N, 12.9690°E)
Time: 16:54:54
(UTC+00:00)

COSMO-SKYMED 1 - Pass Details

Date: 28 October 2021
Orbit: 621 x 623 km, 97.9° (Epoch: 03 December)

Event Time Altitude Azimuth Distance (km) Brightness Sun altitude
Rises 17:24:00 0° 14° (NNE) 2,918 5.9 -15.4°
Reaches altitude 10° 17:26:12 10° 15° (NNE) 2,006 5.0 -15.7°
Maximum altitude 17:30:34 85° 102° (ESE) 633 2.5 -16.4°
Drops below altitude 10° 17:34:55 10° 194° (SSW) 1,989 5.3 -17.1°
Sets 17:37:06 0° 195° (SSW) 2,890 6.2 -17.4°
